GFSSW_700_spd_000.txt.gz
Wind_Speed
16 14 15 17 18 19 21 22 22 22 21 22 22 23 24 24 22 21 17 13 13 13 13 11 7 4 8 9 9 12 8 10 9 8 8 10 8 7 6 6 5 7 11 10 11
17 16 14 18 21 21 21 22 22 21 20 20 19 19 20 20 21 20 17 15 14 13 12 10 6 7 5 10 16 7 8 6 8 8 7 8 6 4 4 4 3 6 11 12 11
17 18 16 14 18 19 19 20 20 20 18 17 16 16 16 16 17 18 19 17 17 16 14 12 10 10 7 12 12 5 8 9 8 8 9 9 8 6 4 2 4 6 10 12 11
18 18 19 14 14 16 16 18 19 19 16 14 13 14 15 14 8 15 22 20 20 18 16 15 14 11 9 10 14 8 11 11 11 10 13 12 10 4 5 6 7 13 14 12 11
19 18 19 15 13 14 15 17 18 14 13 13 12 13 14 16 18 15 23 22 21 21 19 19 13 12 10 14 10 9 14 13 12 13 14 14 12 8 6 7 9 15 14 13 11
20 18 19 16 12 14 16 16 14 11 12 12 11 12 15 15 18 15 23 23 22 22 21 21 12 12 14 17 10 13 16 15 13 14 14 14 13 10 10 11 9 12 12 12 11
20 19 18 16 12 13 15 15 10 8 7 6 5 11 15 18 18 20 23 23 24 23 22 19 15 15 17 18 13 15 16 14 13 11 15 12 14 15 12 11 10 11 12 12 11
19 19 17 16 13 13 14 13 9 5 3 3 2 11 16 19 19 23 26 26 27 25 23 20 17 16 14 14 15 14 13 13 12 13 10 5 10 16 12 10 12 11 11 11 10
18 20 17 16 13 13 13 12 9 6 5 2 4 11 11 19 23 27 26 25 28 25 24 21 17 14 20 17 15 16 17 13 13 12 6 3 11 13 12 11 11 13 12 10 9
19 19 17 16 14 13 12 12 8 7 9 6 6 8 15 18 25 27 27 30 27 25 23 22 16 15 18 21 20 18 14 15 13 14 9 4 7 14 12 12 11 12 14 14 14
20 17 19 14 16 13 10 12 8 6 10 11 6 10 11 24 25 27 29 30 25 22 20 21 23 24 21 20 14 15 19 15 13 10 10 8 10 13 14 13 13 13 13 14 15
20 16 20 13 16 14 9 9 10 10 11 15 11 13 15 26 26 28 29 25 25 23 19 19 25 22 18 19 16 15 17 14 12 12 13 10 11 12 16 16 16 16 15 14 12
20 15 19 15 14 14 11 7 11 11 11 13 15 15 15 30 24 30 29 22 25 24 22 20 20 20 19 18 18 17 17 16 14 14 14 11 13 15 16 19 21 19 19 18 14
20 15 17 16 13 13 12 7 6 10 6 11 17 17 18 25 22 26 27 20 22 24 22 19 17 20 19 17 16 16 14 16 18 17 19 19 16 19 20 21 22 24 25 24 20
21 16 15 17 13 13 13 8 4 2 5 9 17 13 15 26 23 27 28 19 22 24 20 17 23 20 19 16 13 5 7 11 16 18 10 13 14 3 14 23 25 24 25 26 24
20 17 14 19 13 14 13 9 4 6 8 8 18 20 25 21 20 28 29 20 19 20 18 17 19 17 16 14 11 9 10 10 12 12 15 16 17 18 13 18 21 24 25 27 28
20 19 14 17 15 13 12 9 7 12 6 9 19 23 26 22 26 29 29 24 21 22 22 16 20 17 16 16 15 12 15 13 11 10 13 4 11 20 8 12 15 22 25 28 28
19 20 14 16 19 15 13 8 12 9 11 5 16 23 28 24 24 30 27 27 21 23 26 24 18 20 18 17 14 17 17 9 7 9 8 3 9 12 10 14 17 16 22 28 31
18 19 14 17 19 18 16 16 14 10 7 7 14 24 27 24 22 29 30 30 26 24 15 21 16 22 18 18 13 17 15 9 3 7 11 11 8 13 5 4 7 16 21 29 34
16 17 16 16 19 20 18 22 15 11 3 6 12 25 29 29 22 29 31 30 26 24 22 16 16 17 21 19 21 13 16 13 15 6 9 7 8 5 2 7 7 10 18 27 33
15 14 17 15 19 23 23 22 19 14 8 3 7 13 25 29 29 29 28 21 27 23 22 22 20 15 18 20 22 20 19 15 8 6 9 6 4 5 4 2 3 7 8 19 28
14 9 16 18 22 23 22 22 18 15 11 9 6 8 18 25 30 27 30 27 19 22 24 24 20 23 20 19 22 20 21 20 18 13 11 12 13 2 6 5 6 5 9 13 15
14 16 16 21 19 23 21 19 17 14 11 7 6 6 9 19 22 29 25 22 20 18 18 21 22 24 19 15 17 19 21 20 20 15 10 12 7 2 7 10 10 9 10 13 19
12 8 15 21 24 21 20 17 15 22 18 17 12 9 7 12 14 22 20 19 20 18 18 17 21 29 29 27 22 23 22 24 23 22 16 16 16 17 15 14 14 15 17 18 20
12 16 16 11 18 22 20 14 16 11 16 16 14 11 9 12 13 14 18 15 18 19 19 18 18 22 27 23 20 22 23 25 27 25 22 18 12 20 17 17 19 20 24 26 26
12 16 18 19 23 26 21 14 8 10 17 10 11 17 17 12 12 13 13 14 13 15 12 20 16 16 21 20 21 23 25 24 23 21 19 16 17 16 17 19 21 22 25 26 27
9 13 16 17 15 17 17 17 20 17 15 17 20 17 13 21 20 18 16 14 14 11 11 12 15 15 20 15 15 20 20 22 20 16 15 15 15 16 20 20 19 20 23 30 24

GFSSW_700_spd_006.txt.gz
Wind_Speed
15 16 15 14 16 21 23 23 24 25 25 24 24 24 23 22 21 21 19 17 18 16 14 14 5 9 5 6 12 16 16 12 10 14 19 14 17 15 13 17 9 1 5 14 23
16 16 17 15 15 16 19 22 23 24 24 23 22 20 19 19 19 21 16 19 16 13 12 11 9 3 7 9 2 4 9 11 7 13 19 12 14 14 11 12 12 11 16 14 18
17 17 16 17 17 15 14 15 18 21 22 21 20 17 15 14 14 12 21 19 18 15 15 13 6 8 10 5 1 4 8 6 13 11 11 17 12 4 11 15 16 10 13 14 16
18 18 17 16 17 16 13 13 15 18 20 19 15 13 12 10 4 12 14 20 19 18 18 20 8 8 10 4 2 3 10 8 9 5 17 12 9 12 1 20 14 10 10 12 12
18 18 17 17 16 18 14 12 14 15 17 14 12 12 11 12 16 6 15 21 22 21 21 17 11 10 9 5 4 7 9 8 8 13 13 12 15 14 17 18 14 12 11 11 13
19 18 17 17 16 16 15 13 14 14 14 12 12 12 13 11 8 8 16 23 24 23 24 15 14 10 7 6 5 8 8 10 12 6 6 13 11 14 15 17 12 15 13 12 13
18 18 17 17 16 15 15 13 14 13 11 11 12 12 14 13 13 12 13 19 23 25 22 16 14 10 11 11 6 10 11 10 8 15 17 11 12 13 15 15 16 15 13 12 12
18 18 18 18 17 16 14 13 14 13 9 9 12 10 10 15 14 18 16 21 24 24 16 13 11 14 14 12 9 13 15 14 15 14 12 7 8 10 12 12 11 11 10 9 11
19 18 19 18 18 16 16 10 12 13 8 9 10 8 7 13 20 18 21 23 24 20 17 14 16 15 14 16 16 18 19 19 15 10 8 8 11 11 11 11 12 14 13 12 8
20 19 18 18 18 16 16 10 7 9 11 8 8 4 7 11 15 20 20 23 22 21 19 18 20 17 20 23 26 20 20 24 16 16 12 16 12 13 14 12 14 15 14 14 11
22 20 18 18 18 17 14 11 4 18 11 13 6 9 8 7 14 20 24 22 22 22 24 21 24 24 22 22 20 16 14 17 11 19 22 12 20 20 17 13 14 16 15 14 13
23 21 18 17 17 17 14 11 4 13 23 20 19 17 7 14 17 20 25 27 28 27 24 23 30 22 20 21 22 20 12 15 17 14 13 12 16 18 18 16 15 17 17 17 17
24 21 19 16 16 17 13 10 12 13 21 20 21 24 19 19 18 24 28 27 28 27 28 29 26 23 20 21 21 20 16 13 18 14 9 11 17 21 14 17 17 18 18 19 22
24 22 20 15 17 14 4 4 8 10 19 24 21 26 26 22 22 22 28 27 25 29 26 26 23 24 23 22 20 23 17 18 20 14 17 19 22 27 25 20 20 22 22 22 23
23 23 19 18 15 15 10 11 9 1 7 7 23 19 26 28 23 27 28 29 24 25 28 29 26 29 27 25 22 20 18 19 16 17 19 18 17 25 24 24 24 26 26 24 23
23 22 19 21 13 13 14 10 7 8 13 5 18 20 25 26 26 26 28 31 25 22 26 25 22 24 26 22 21 20 12 19 15 18 24 24 18 13 21 30 34 23 26 26 25
23 23 22 21 11 18 17 15 11 15 18 11 19 21 25 26 29 32 32 36 35 28 30 26 27 22 22 23 23 20 17 13 12 15 16 22 24 21 19 21 22 21 29 30 26
23 24 23 19 17 17 15 17 21 22 25 14 15 19 25 26 30 33 33 35 35 28 27 29 29 26 25 27 23 22 21 17 13 11 17 17 12 25 12 16 11 17 26 25 30
22 23 24 18 19 20 22 22 27 26 21 21 15 20 27 29 28 33 35 36 35 34 30 30 28 27 27 24 25 20 26 24 24 19 10 10 14 15 15 12 11 9 14 25 22
19 22 20 18 21 22 26 32 27 30 28 18 19 23 27 30 33 35 36 34 34 32 33 25 22 27 27 23 23 23 19 19 24 10 11 12 14 19 21 14 9 8 13 14 20
17 16 7 17 18 23 30 31 29 31 26 18 20 16 23 30 34 33 30 30 34 32 33 35 25 27 29 30 30 28 20 17 19 19 10 10 6 15 14 11 9 7 8 10 14
14 10 12 14 17 22 28 29 25 28 23 18 23 23 19 21 33 35 33 33 32 34 35 32 20 23 38 26 27 27 24 16 19 14 15 16 8 13 11 10 12 9 6 8 12
15 16 11 16 22 24 24 28 27 28 26 21 24 28 20 21 26 38 33 31 30 35 38 30 26 18 20 28 29 27 25 27 23 21 22 17 8 11 11 12 10 9 6 7 11
12 6 14 21 22 24 24 25 24 28 31 22 20 23 26 26 23 26 34 29 34 32 35 30 33 26 25 26 27 31 29 28 31 26 25 22 8 10 10 12 11 6 4 5 10
10 11 15 13 19 23 25 24 22 28 29 23 19 22 19 18 21 22 26 33 30 36 36 33 24 28 29 29 25 25 30 29 30 31 27 20 19 24 12 18 12 16 12 10 11
17 17 19 24 8 12 26 26 23 26 28 28 24 20 20 21 12 7 10 17 40 24 22 25 21 21 26 26 26 29 28 29 30 29 30 27 26 21 19 7 10 6 9 12 13
17 18 22 25 9 11 19 19 22 15 26 26 26 19 19 16 15 17 6 4 8 25 29 27 28 27 27 25 27 32 31 31 28 28 26 25 17 12 13 16 12 8 13 13 21

GFSSW_700_spd_009.txt.gz
Wind_Speed
14 13 14 16 15 16 18 22 24 24 25 25 24 24 24 21 21 22 20 18 22 24 22 14 7 11 13 12 6 8 6 2 19 20 19 23 19 18 9 13 8 8 4 17 20
14 15 14 14 15 16 17 16 19 21 23 23 22 22 21 19 18 20 14 20 19 21 21 18 12 9 9 10 13 10 4 14 14 29 23 25 23 21 15 15 9 5 16 18 13
16 15 15 15 14 14 16 16 15 15 18 19 20 19 16 16 14 11 21 19 17 19 20 19 20 11 11 11 17 17 15 26 20 19 13 19 22 12 19 12 10 5 18 24 17
16 17 16 14 15 14 15 15 15 15 16 17 16 15 13 13 6 9 16 18 20 21 22 20 21 16 9 4 10 12 14 16 24 23 16 12 1 9 14 17 11 5 10 22 22
18 17 17 16 14 15 14 15 15 16 16 16 12 13 12 13 13 6 15 21 23 25 24 23 23 10 6 5 7 16 17 13 22 21 12 10 17 21 28 17 13 11 11 14 19
18 18 18 17 16 15 15 14 14 16 17 15 12 12 13 8 15 16 16 23 26 29 27 26 20 6 4 10 10 8 11 15 16 12 10 8 16 21 22 19 13 13 12 12 12
19 19 18 18 16 16 15 16 12 14 17 15 12 12 12 6 13 6 11 22 27 31 30 26 16 9 5 6 5 10 17 19 11 19 13 5 16 12 17 15 16 14 12 12 9
20 20 20 19 18 16 16 15 14 12 14 15 14 11 8 16 17 13 10 23 28 31 31 26 14 9 11 8 14 15 16 17 24 21 19 4 21 13 13 13 13 10 8 9 10
21 20 20 20 20 17 16 15 14 12 9 13 14 10 5 14 19 14 16 23 27 31 32 26 10 14 14 12 15 17 20 22 23 20 14 7 21 13 16 15 9 12 14 13 9
23 21 20 20 21 17 15 14 10 9 13 12 14 8 6 9 10 17 20 23 27 31 27 18 13 20 21 18 23 23 22 23 23 20 14 12 15 19 18 16 12 16 15 14 14
23 22 20 19 20 19 14 14 8 11 10 9 15 14 7 5 5 13 22 21 26 25 21 18 21 23 23 18 19 26 27 22 14 16 16 16 21 20 19 17 17 22 21 19 15
24 22 20 18 18 18 15 12 8 14 27 19 18 23 13 11 15 14 20 27 25 26 23 22 27 28 20 18 21 26 23 28 22 29 15 21 23 20 28 22 16 22 22 19 15
24 23 20 17 18 16 12 3 2 9 27 33 27 30 19 14 23 22 30 27 28 28 29 30 26 25 24 20 23 26 22 23 26 27 18 21 27 32 14 28 27 19 23 18 20
24 24 21 18 17 14 8 15 8 10 19 30 24 32 27 17 28 20 30 33 28 30 28 27 24 28 28 32 26 25 18 15 9 30 26 31 18 35 24 27 32 24 26 19 26
24 24 21 21 14 11 12 12 10 5 5 8 15 23 31 30 23 26 26 31 28 29 31 33 30 31 30 25 21 23 19 13 22 18 26 33 16 19 24 30 31 27 27 24 27
22 23 22 22 12 18 18 18 11 4 10 9 13 27 27 28 28 23 28 33 32 25 28 27 25 30 28 23 24 18 17 17 19 23 12 15 23 16 36 35 31 30 31 30 28
21 21 24 22 9 19 17 15 13 11 8 6 22 26 27 29 29 29 36 33 39 34 34 31 34 29 26 28 26 19 20 12 4 7 10 28 29 23 30 28 23 33 34 32 32
19 22 23 20 16 21 18 19 15 18 37 12 9 21 27 27 29 31 37 37 39 36 25 30 32 33 26 30 29 26 27 10 7 4 17 27 23 20 23 24 16 22 28 24 38
20 22 23 16 20 23 25 24 24 34 30 26 21 23 26 27 28 31 37 40 37 40 37 29 33 26 29 28 28 31 32 22 25 23 16 12 26 24 16 18 22 26 22 23 40
21 22 19 15 21 25 29 39 34 39 35 26 34 26 30 31 37 33 38 40 36 39 39 31 28 33 28 24 32 30 31 23 25 2 6 12 11 5 26 27 25 22 21 21 25
19 20 5 13 19 28 37 40 36 37 28 27 32 38 35 18 32 36 37 39 35 34 37 40 31 27 29 32 32 23 30 23 26 24 7 2 4 3 25 20 16 14 13 10 27
15 10 5 11 18 28 36 36 30 32 26 29 32 30 32 24 15 40 34 42 38 34 43 39 29 33 37 33 37 34 26 27 20 11 8 11 7 13 18 19 19 18 17 18 19
13 10 22 23 20 19 19 23 29 27 28 27 30 32 35 26 24 19 30 37 34 36 45 42 40 34 27 37 36 36 34 32 25 17 17 8 4 16 18 18 18 16 13 11 11
10 8 21 22 27 21 23 29 31 24 28 28 29 27 24 25 24 26 22 15 38 40 25 40 38 26 24 23 37 36 34 27 30 25 24 24 17 22 21 19 13 18 16 6 11
10 11 15 16 23 29 25 28 32 32 29 23 29 33 21 21 21 28 24 25 25 39 32 37 43 36 26 22 18 26 32 32 29 29 25 18 28 31 23 21 21 18 10 15 11
15 21 20 25 16 14 17 21 32 28 26 29 22 29 24 25 7 6 5 2 5 37 44 37 34 31 26 26 23 21 19 35 30 30 34 31 27 26 29 32 28 28 26 30 24
18 20 20 29 18 13 10 21 19 28 33 28 18 26 30 22 14 18 6 1 5 9 25 49 42 32 21 22 16 19 18 19 22 36 33 32 25 23 28 24 16 21 24 20 17

GFSSW_700_spd_015.txt.gz
Wind_Speed
14 14 14 15 16 16 16 16 16 17 20 22 23 22 21 20 21 23 23 25 31 28 21 13 16 18 15 17 10 11 11 16 24 22 20 19 15 15 9 13 12 9 11 18 23
15 15 16 16 17 17 17 16 15 15 15 18 20 20 20 20 20 19 16 25 31 32 23 19 14 20 18 15 9 5 3 3 19 20 18 17 8 8 13 11 13 15 17 17 16
15 15 16 17 17 17 18 18 16 15 15 15 17 18 18 18 18 13 16 21 28 31 27 24 18 23 25 13 11 9 11 5 18 18 17 15 11 9 14 12 6 8 16 18 16
17 16 16 17 17 17 18 19 18 15 16 16 15 17 18 16 7 7 17 21 26 31 31 27 23 23 25 20 11 14 9 10 21 16 20 18 15 13 8 8 8 6 12 16 20
19 18 17 17 17 18 18 18 20 17 16 17 16 16 17 16 8 13 21 25 28 34 33 31 26 22 19 12 12 21 17 16 18 17 17 17 17 14 13 9 8 8 10 10 12
19 20 20 19 18 17 17 18 19 19 17 18 18 16 17 12 11 15 21 26 29 36 35 34 27 22 14 7 12 18 28 26 24 23 21 18 16 19 15 12 10 8 9 9 9
18 20 21 21 21 19 18 19 20 19 19 18 18 18 17 8 14 19 22 28 30 35 38 32 25 22 17 6 9 23 29 32 27 27 26 19 15 15 14 15 11 11 11 10 9
20 19 21 22 23 22 19 20 21 20 18 18 18 19 15 12 15 20 24 31 35 38 34 28 27 25 15 5 12 25 31 36 28 25 16 11 11 15 19 19 15 12 13 12 12
23 22 21 22 23 23 20 21 21 20 18 18 20 18 9 12 12 18 22 28 33 36 34 30 31 28 18 12 22 30 38 33 32 24 18 12 9 10 20 20 16 13 13 12 12
24 23 22 22 23 21 19 22 21 21 21 20 22 17 12 13 18 21 21 26 34 34 33 33 33 31 26 19 23 37 33 32 25 29 22 17 8 8 12 16 19 18 15 14 15
25 23 21 22 22 21 18 20 22 22 22 24 20 18 12 17 20 25 20 25 35 35 37 36 37 39 31 20 11 38 36 36 26 26 26 21 16 8 11 12 14 16 15 13 12
26 24 21 21 22 20 19 18 23 26 30 24 30 30 18 20 25 29 26 24 34 37 35 37 42 38 28 23 17 21 14 40 28 27 29 23 18 13 11 8 10 11 10 10 10
25 24 23 21 19 18 18 18 21 25 32 33 25 33 19 29 30 31 34 30 31 37 37 42 44 37 33 29 25 18 17 13 29 28 28 19 20 22 20 15 16 15 10 9 7
25 24 23 20 19 18 17 17 19 20 22 31 11 9 25 34 36 31 29 33 32 37 34 35 45 37 35 34 29 23 19 12 26 31 28 29 16 28 27 26 24 22 21 20 15
23 24 22 20 16 17 18 16 14 12 6 9 8 9 7 39 36 37 31 32 37 28 35 32 46 46 40 40 33 26 20 17 11 30 34 34 14 26 31 31 29 28 24 25 21
23 23 21 20 15 16 18 17 13 7 10 6 8 15 14 26 39 26 32 30 34 29 32 36 25 47 48 42 32 25 21 18 23 28 18 36 34 27 32 27 25 30 27 25 27
23 22 22 18 15 15 19 17 14 12 8 2 5 9 9 18 32 22 32 35 35 35 29 33 37 36 37 49 36 32 23 5 3 3 6 35 31 32 25 27 23 25 17 13 26
22 22 20 20 18 16 20 21 18 11 36 10 8 7 10 11 33 22 32 37 39 36 28 27 28 42 38 38 36 35 31 16 7 5 9 15 18 45 34 30 25 25 26 20 16
23 21 20 22 22 19 24 31 26 33 17 16 25 23 18 8 9 28 26 36 37 41 28 31 27 35 42 36 34 34 32 27 29 12 5 13 12 22 23 16 20 32 32 34 20
21 20 21 22 22 25 30 39 35 35 23 17 13 6 7 12 8 6 4 26 41 33 42 26 14 36 37 32 34 36 29 16 16 6 5 7 11 14 20 24 32 24 32 29 25
21 21 17 18 22 27 37 37 36 38 23 24 31 30 29 29 26 22 17 19 21 37 35 44 32 26 28 38 37 31 34 32 23 21 7 4 17 27 23 26 22 21 21 30 24
20 19 17 18 23 26 34 35 33 36 25 19 31 36 30 24 29 26 27 22 17 20 45 46 39 41 38 29 27 32 34 33 30 12 11 18 26 20 21 19 11 16 22 28 21
19 18 21 19 17 22 24 27 27 28 28 27 31 30 25 26 20 23 26 17 22 25 39 48 43 35 37 39 35 33 31 28 34 36 33 14 18 20 14 15 17 20 25 25 22
20 11 11 19 20 21 21 22 22 19 18 19 24 23 17 18 25 20 26 18 13 18 33 47 46 45 33 34 30 28 33 29 30 36 28 34 32 25 20 19 19 24 27 23 25
20 18 17 13 22 27 27 23 23 23 20 19 22 25 19 22 21 34 30 22 23 21 24 46 43 45 49 49 34 26 27 25 31 44 33 38 35 32 24 23 22 25 31 29 24
21 22 24 20 21 22 20 19 21 17 18 17 17 20 20 24 25 24 22 27 22 6 7 40 49 46 47 44 46 43 35 37 39 44 44 39 32 30 27 26 28 28 27 29 28
23 24 24 22 18 20 19 20 20 17 16 16 5 16 18 16 21 30 24 26 16 16 10 11 49 43 40 45 34 32 40 28 28 38 42 33 29 15 24 29 28 30 30 28 29

GFSSW_700_spd_021.txt.gz
Wind_Speed
12 11 13 15 17 17 17 16 16 15 15 15 15 18 22 24 25 25 24 27 22 24 23 16 10 10 8 5 11 10 7 11 8 10 11 11 11 11 11 9 11 16 11 16 18
14 14 14 13 14 16 18 17 16 17 15 16 15 14 18 21 24 24 22 21 24 24 25 19 14 12 12 8 11 5 3 3 5 5 7 9 8 11 11 12 14 13 15 17 15
15 15 15 14 14 14 15 17 18 17 17 16 16 14 14 16 18 19 20 21 24 25 28 24 19 15 15 13 13 8 5 5 4 9 7 5 8 8 10 8 6 11 14 15 15
17 16 16 16 15 14 15 16 17 18 17 17 16 15 14 14 6 11 19 23 26 29 31 30 24 20 19 21 12 8 6 6 8 6 13 10 5 10 8 6 8 8 11 15 17
17 18 17 17 17 17 16 16 17 18 17 16 17 16 15 15 10 17 14 21 27 32 34 32 27 23 21 23 19 13 15 12 7 10 13 13 8 9 7 5 9 12 13 13 14
18 18 19 19 19 18 18 18 17 17 18 18 17 18 17 13 13 15 19 19 27 31 34 35 31 26 23 22 18 21 14 8 8 10 12 16 14 12 8 6 7 9 9 12 14
21 21 20 21 21 21 21 20 18 19 17 18 18 18 19 7 15 13 17 20 27 31 35 35 32 29 27 20 19 16 11 8 12 12 12 16 18 16 10 11 9 10 11 11 13
22 23 23 23 22 21 23 23 20 19 18 18 18 18 18 12 14 14 17 20 26 31 35 33 33 29 23 21 18 15 11 13 17 16 15 15 12 17 19 16 13 13 14 13 13
21 22 22 24 24 22 23 22 23 21 19 18 18 18 15 11 14 15 16 20 24 30 34 34 30 30 27 24 17 15 11 16 20 20 21 20 12 16 18 21 18 18 16 16 16
21 20 19 22 24 24 23 23 23 22 20 19 19 11 5 7 10 14 17 20 21 26 31 34 33 32 31 30 25 18 19 22 24 26 25 24 23 13 13 22 22 21 19 19 18
22 21 20 21 21 24 24 22 24 24 22 19 18 18 15 14 11 15 20 23 22 21 31 35 37 39 35 31 23 21 25 25 27 23 26 26 26 24 12 16 20 25 24 22 21
21 20 18 20 19 22 23 22 23 27 27 21 21 22 18 18 19 19 23 26 26 27 27 32 37 38 31 28 24 25 24 24 22 23 17 24 27 24 20 13 11 16 21 24 23
22 20 16 18 18 21 21 20 21 25 29 22 17 17 19 22 25 24 28 30 28 28 28 31 28 34 34 33 29 27 27 25 23 26 25 13 22 30 26 20 17 14 13 18 20
22 23 17 16 17 19 18 17 17 19 19 21 8 7 6 5 19 28 31 31 30 30 26 26 32 31 35 38 33 27 27 28 25 20 23 22 20 20 26 27 23 18 18 16 16
22 23 17 16 16 17 17 16 14 14 6 3 6 7 7 7 9 20 36 31 28 26 30 21 30 33 35 38 36 26 26 25 28 26 20 17 13 25 24 25 27 24 22 20 17
25 24 19 17 17 18 14 14 12 5 9 6 10 5 1 5 8 11 39 35 31 26 25 24 19 23 31 36 35 25 23 22 20 20 14 24 23 24 26 25 25 30 28 24 22
24 23 24 18 18 17 15 13 9 10 7 8 15 15 2 4 5 20 33 41 32 29 28 24 29 18 25 30 35 30 23 12 10 9 10 21 19 32 20 22 19 20 25 23 25
26 24 24 22 21 20 18 20 18 12 27 7 13 19 10 8 6 17 22 34 34 29 25 28 24 34 21 33 34 41 33 21 17 10 13 21 16 31 26 23 23 21 21 19 22
30 25 25 24 24 23 24 31 21 28 13 22 26 22 17 14 12 21 26 30 40 39 27 25 30 23 27 28 34 33 37 34 18 10 12 15 18 29 22 16 19 20 20 21 23
29 26 26 25 26 25 31 44 28 28 20 21 17 10 8 15 7 14 23 21 32 40 34 23 12 29 27 29 31 35 36 25 24 17 15 12 9 14 15 18 15 17 16 19 19
28 26 24 22 22 26 37 41 36 33 29 29 26 22 20 18 15 11 11 16 23 27 37 28 24 13 30 36 36 28 24 23 23 25 15 15 22 22 23 21 18 21 24 20 24
27 23 20 20 22 24 33 35 34 35 32 35 29 28 24 23 24 14 13 13 17 21 31 35 25 28 23 23 27 40 32 34 26 19 19 23 27 10 13 19 17 19 21 18 22
27 24 23 23 25 28 29 27 27 32 28 30 36 32 25 30 27 26 22 26 18 14 16 25 20 20 24 29 29 26 33 38 34 32 32 22 23 20 19 18 18 20 23 16 14
24 16 14 16 21 23 25 27 28 22 28 30 23 25 25 27 26 16 16 18 23 22 16 14 14 21 28 33 30 30 23 31 34 33 30 33 32 27 29 26 21 19 19 19 16
19 18 17 13 11 17 21 19 17 19 20 18 25 34 32 29 33 33 30 26 17 19 18 14 21 22 30 31 33 34 34 31 30 39 36 36 38 35 30 28 25 22 20 21 22
21 21 22 22 21 21 20 20 20 23 21 20 19 17 24 29 27 21 28 28 27 23 27 20 18 21 31 35 35 39 38 36 34 36 37 36 37 34 31 29 27 26 30 27 26
22 20 21 24 20 20 19 18 17 19 19 19 21 25 29 27 27 28 29 29 27 13 22 20 17 10 14 24 30 35 39 36 36 36 40 38 39 31 30 32 36 35 33 32 28

GFSSW_700_spd_024.txt.gz
Wind_Speed
12 12 12 12 11 11 11 11 13 12 12 14 13 15 20 23 25 24 25 28 25 26 22 16 11 6 5 4 6 9 3 4 3 5 7 10 9 10 10 10 13 15 14 19 19
13 13 13 13 13 12 12 12 11 12 12 12 13 12 16 18 22 23 23 22 22 22 24 19 14 9 8 5 7 7 3 2 2 4 7 11 8 8 10 13 15 15 14 18 17
14 14 14 13 13 13 13 13 12 11 12 12 13 13 12 14 15 20 22 21 22 20 23 21 17 13 11 9 10 5 3 1 1 7 9 9 10 6 10 11 11 13 14 18 16
15 15 15 15 15 14 14 14 14 12 11 12 13 13 11 11 3 13 19 22 24 24 25 25 22 18 15 15 12 8 5 1 2 5 10 9 11 9 8 8 9 9 12 17 18
18 17 16 16 15 16 16 15 14 15 13 12 13 14 12 13 10 16 14 20 23 26 28 28 26 21 17 15 14 12 6 6 5 8 10 11 9 11 7 6 11 13 15 14 15
20 20 20 19 19 18 17 17 16 16 15 14 13 14 14 13 10 16 19 18 22 27 28 32 29 23 15 16 19 10 12 9 7 10 11 12 12 12 8 6 8 12 14 16 16
19 20 21 22 22 22 22 19 17 18 16 15 15 15 14 6 11 16 19 20 21 27 29 32 31 26 19 17 16 15 9 8 8 10 11 13 13 14 12 10 8 13 14 15 16
20 20 20 21 23 22 24 23 20 18 17 16 17 17 14 10 12 16 19 19 21 26 30 33 34 31 19 18 15 15 13 11 12 13 11 14 10 15 16 12 11 12 14 13 15
18 19 20 21 22 22 22 23 22 21 18 17 17 18 16 8 8 14 16 19 21 25 28 35 34 25 22 23 20 19 19 18 15 16 13 16 7 12 13 17 15 14 15 15 16
18 17 18 20 21 22 21 21 21 22 21 19 19 16 11 6 5 8 15 18 20 24 27 32 31 25 27 31 30 23 20 20 18 19 15 17 12 8 11 18 19 20 19 19 19
20 19 18 20 20 21 19 20 19 20 20 19 18 15 14 17 12 12 14 17 20 19 24 29 32 38 35 32 27 21 19 19 19 14 18 17 16 16 12 15 20 22 24 24 22
21 20 19 21 21 21 19 18 19 21 24 21 23 25 21 22 20 17 16 21 21 24 25 28 38 33 30 30 29 23 23 22 17 15 17 15 18 18 19 18 18 22 25 27 24
23 21 18 20 22 21 18 17 18 20 24 22 21 23 24 26 25 23 23 22 24 25 30 29 32 29 31 31 31 29 26 25 21 16 17 13 18 19 21 20 19 21 23 26 27
26 24 19 19 21 20 18 16 14 15 16 14 17 17 20 23 24 29 27 23 22 30 27 27 29 33 30 33 33 32 28 24 23 19 19 17 18 16 16 21 22 20 23 25 24
30 27 22 19 21 21 18 16 13 9 6 6 8 12 16 16 11 16 31 27 26 25 31 31 33 30 35 36 33 35 25 25 25 26 23 17 15 19 15 19 22 21 22 22 23
31 30 25 21 21 21 17 13 10 5 10 7 11 14 13 16 14 14 32 30 23 25 29 30 23 30 32 31 33 29 22 21 25 27 29 30 21 21 21 20 18 19 23 21 21
33 30 29 21 22 20 18 14 8 14 6 11 13 16 11 11 15 16 28 38 34 32 35 30 32 27 26 32 33 32 29 21 19 20 16 31 28 28 13 19 16 14 19 23 23
30 30 29 26 23 23 21 21 21 9 22 12 14 18 18 13 13 18 21 37 37 32 27 34 34 36 27 39 40 41 41 27 25 16 17 29 24 34 27 25 21 20 17 19 16
27 28 28 26 24 26 25 32 22 25 19 20 14 17 22 20 12 17 25 31 38 39 35 32 39 32 37 30 40 41 47 40 33 30 25 30 28 30 25 25 21 17 18 16 19
27 27 28 26 25 29 34 47 28 24 17 19 27 21 23 24 19 19 19 20 32 37 33 24 25 32 30 30 37 43 42 41 43 25 23 30 30 24 20 22 20 17 16 17 17
27 24 27 22 22 30 37 37 33 32 25 25 28 27 23 20 22 22 21 21 21 32 37 33 24 25 32 42 41 40 37 47 41 41 17 18 29 27 22 17 15 15 15 16 18
25 18 19 19 22 24 30 26 30 25 33 31 29 30 33 27 25 23 20 16 16 26 35 37 26 27 32 37 38 40 40 42 39 36 40 40 31 28 29 26 26 24 20 20 21
27 25 24 22 19 24 24 23 25 24 28 30 38 33 31 32 30 30 28 21 11 14 27 32 38 25 27 25 34 45 41 43 45 41 44 31 35 31 17 19 15 21 20 17 19
22 15 14 15 16 19 18 23 23 21 24 29 28 31 32 32 33 27 25 25 20 20 17 21 30 38 31 38 33 33 42 44 44 43 40 45 34 37 35 30 26 22 20 22 21
23 15 18 11 10 15 14 17 15 16 19 18 29 30 31 36 34 35 27 19 14 19 23 23 28 28 36 31 32 35 36 38 46 50 47 43 46 38 38 29 29 27 22 22 25
19 17 27 29 26 24 18 17 14 16 18 16 21 17 34 32 32 28 27 29 27 21 23 23 24 26 30 33 33 33 36 39 41 43 46 49 48 39 38 40 35 32 31 30 31
20 22 21 21 23 22 15 15 12 8 16 17 16 13 10 20 26 27 27 21 28 25 24 26 28 26 28 30 31 37 39 39 42 45 44 48 47 43 46 39 40 38 35 34 29

GFSSW_700_spd_027.txt.gz
Wind_Speed
12 13 13 13 13 12 11 13 13 13 13 13 15 16 17 19 21 24 24 26 28 29 24 19 13 6 4 7 8 6 2 16 6 6 9 9 7 9 10 13 13 10 12 20 21
14 13 13 14 13 13 13 11 11 12 13 12 13 13 15 15 17 20 21 23 23 25 26 21 15 9 9 7 9 9 1 6 6 3 9 8 7 8 10 13 14 12 17 18 17
15 15 15 14 15 14 13 13 12 11 12 12 11 11 12 12 10 14 19 18 21 20 21 22 16 13 13 8 9 8 8 6 3 4 7 8 7 7 9 11 14 16 19 14 15
18 18 17 16 16 16 14 14 13 13 12 12 12 11 9 8 2 13 15 18 20 20 22 24 19 18 16 13 12 10 2 3 5 6 8 8 8 7 9 9 13 15 17 14 15
18 19 20 20 20 18 17 16 15 14 14 13 13 13 11 11 13 18 11 17 20 22 24 25 24 22 19 13 13 14 7 4 3 7 9 10 8 9 9 11 14 16 17 15 18
16 17 19 21 23 23 22 19 17 16 15 14 14 15 14 13 9 20 17 15 18 22 24 27 27 23 17 16 17 13 11 7 6 10 12 11 10 10 10 11 15 17 16 17 17
16 16 17 19 20 22 24 23 21 19 18 16 16 16 16 9 10 14 17 18 16 20 23 26 26 22 22 17 16 18 12 10 9 14 13 13 12 13 14 12 16 17 19 20 20
18 17 18 19 18 18 21 22 23 22 20 19 18 18 17 14 14 17 17 19 20 20 22 20 27 23 24 18 17 19 17 17 13 15 14 18 19 18 16 15 17 18 20 21 22
21 20 20 21 20 18 18 17 19 21 21 20 20 20 18 15 13 16 18 18 18 20 22 21 25 28 22 24 22 24 23 20 16 18 14 17 14 17 16 16 19 19 20 21 21
21 20 20 22 21 21 19 18 17 18 20 20 21 20 17 13 9 10 15 17 19 18 20 24 27 31 30 31 29 28 25 23 22 21 16 14 6 10 14 16 17 20 22 22 22
23 21 20 22 21 20 18 19 17 16 19 19 10 12 7 10 13 11 12 17 19 21 25 29 33 42 37 35 28 25 23 15 21 20 21 19 15 14 13 16 17 20 23 24 24
25 24 20 21 22 21 19 17 17 21 26 20 23 28 23 15 15 14 15 20 24 27 26 26 39 36 33 32 32 29 27 22 17 19 24 20 20 18 17 17 19 21 23 25 25
26 26 24 22 22 21 20 18 17 20 27 24 22 25 26 28 27 19 21 23 23 27 31 35 34 35 35 35 34 33 31 23 22 21 19 21 23 22 21 19 19 21 23 24 27
27 27 24 21 23 21 22 17 15 15 17 22 17 22 27 26 30 28 27 25 25 28 29 33 27 35 37 39 36 36 29 24 24 25 22 25 23 28 25 24 23 22 23 25 26
31 28 26 25 22 22 23 18 13 8 7 5 12 13 17 29 9 24 31 30 30 27 30 36 33 36 42 41 38 37 32 29 27 25 31 28 30 22 25 28 25 23 23 24 25
39 34 30 28 23 23 20 17 11 7 13 13 14 14 20 26 18 11 31 32 26 26 29 33 29 35 35 38 38 34 32 32 32 32 25 28 29 30 24 26 22 23 21 23 24
34 34 32 27 22 22 19 16 10 19 9 18 18 18 22 22 24 21 30 38 38 36 34 31 37 32 32 36 39 38 36 30 23 24 20 34 33 29 22 20 24 23 22 22 24
28 30 28 27 24 24 21 21 24 16 31 7 17 21 27 24 23 25 28 36 37 33 30 35 32 41 37 41 41 45 45 37 26 18 23 37 36 38 28 15 17 18 19 20 24
28 27 24 25 25 27 27 36 32 30 19 23 20 25 29 28 23 29 32 34 37 40 37 33 37 27 40 38 40 44 51 44 39 36 31 34 35 29 17 30 26 22 20 22 21
31 27 22 24 24 29 35 55 29 30 17 21 34 26 31 33 31 26 33 32 34 38 38 34 26 31 32 34 38 50 44 45 47 28 26 35 34 31 30 27 25 26 23 22 22
29 21 24 20 19 30 41 42 37 36 29 30 28 34 36 32 37 35 35 29 28 33 37 38 31 24 32 44 47 41 52 48 46 47 21 19 30 33 24 23 28 28 24 21 23
27 15 19 16 17 22 34 34 31 34 32 36 33 36 35 35 37 38 39 32 26 28 40 39 35 32 31 38 35 42 45 49 41 40 43 43 34 28 26 22 19 24 22 19 19
22 21 21 17 24 27 28 31 32 34 34 37 38 42 33 37 35 37 30 31 23 22 32 36 43 33 31 31 41 43 48 50 53 44 45 33 38 32 16 23 25 27 22 21 18
19 14 13 20 18 22 27 30 26 26 34 31 36 33 40 40 38 35 37 33 26 22 27 27 38 47 33 39 31 41 43 46 49 52 38 50 42 36 36 23 22 20 20 19 19
12 13 19 16 15 19 14 15 23 22 20 26 31 35 37 40 40 40 38 35 38 28 30 26 34 40 42 35 29 33 41 42 50 49 47 44 49 44 37 34 31 28 28 24 22
18 14 18 21 22 29 20 18 22 26 22 22 21 26 34 37 37 39 37 40 32 36 31 33 34 33 35 36 35 34 35 37 42 47 47 48 48 43 43 36 29 31 30 27 24
20 19 21 20 18 19 21 25 18 17 22 20 17 21 16 7 26 32 30 40 39 33 33 36 36 33 34 32 30 38 38 39 40 39 44 50 48 40 39 37 40 39 36 32 31

GFSSW_700_spd_030.txt.gz
Wind_Speed
15 16 16 16 16 15 14 14 15 16 16 16 16 17 18 19 19 20 24 25 30 28 26 21 16 11 9 14 15 16 11 9 3 14 13 11 9 11 15 16 15 10 19 18 20
16 16 16 17 17 16 15 13 13 14 15 15 15 15 17 17 18 19 14 24 26 25 28 23 17 11 14 11 12 16 7 3 5 10 14 12 10 10 10 15 14 16 22 21 25
18 18 17 17 18 17 16 15 14 13 13 14 14 14 14 14 12 13 12 18 21 23 25 26 18 15 17 12 14 16 6 8 11 13 11 12 12 9 14 13 12 23 24 24 22
17 18 19 20 19 18 18 18 16 14 13 14 15 14 13 12 2 10 9 14 19 21 23 26 21 20 19 14 12 11 4 6 4 7 9 11 11 10 9 15 16 19 23 24 25
16 16 18 20 20 20 20 18 19 18 16 15 15 16 15 17 14 14 9 12 18 22 25 26 23 22 20 14 13 18 6 8 6 5 8 15 10 11 8 16 17 19 22 21 23
16 16 17 18 19 20 21 21 20 21 20 18 17 17 19 17 11 16 17 14 18 21 24 26 25 22 19 18 18 16 15 10 6 8 12 11 13 11 13 13 18 20 22 22 22
18 18 18 19 19 18 20 21 20 22 22 22 21 21 21 8 6 13 14 13 15 20 23 25 24 21 21 21 18 17 17 16 10 12 14 10 14 11 16 15 18 21 23 22 23
19 18 19 20 19 19 18 19 19 20 22 22 24 24 24 12 14 16 16 16 13 14 19 20 21 24 22 19 19 21 21 21 17 15 15 18 12 12 16 17 19 21 23 23 23
20 19 20 21 20 20 19 17 18 19 20 21 23 26 24 18 17 13 17 19 17 17 18 19 19 24 23 25 25 24 25 21 15 15 17 16 18 15 16 17 20 21 22 23 23
23 21 21 22 21 20 20 19 18 19 20 20 23 21 11 14 10 12 16 21 20 18 19 21 23 27 30 28 30 29 25 26 23 22 22 20 21 36 22 19 21 21 22 24 24
25 22 21 22 23 21 18 20 20 20 23 19 9 17 3 6 11 13 15 17 19 21 26 25 29 37 36 32 27 26 25 26 24 11 22 18 15 31 31 22 22 22 24 24 25
27 26 23 21 23 22 20 18 25 23 33 26 22 30 19 12 14 17 17 22 25 28 25 26 39 33 31 32 31 31 31 31 21 21 27 20 21 17 27 24 23 24 25 26 26
30 29 25 21 23 23 22 21 20 23 33 34 25 27 26 32 26 21 23 24 26 28 30 34 31 29 33 35 34 34 33 30 16 24 24 20 21 26 26 23 23 24 25 24 28
36 34 32 23 23 20 19 23 17 19 21 36 25 26 30 33 37 29 26 24 26 29 29 32 29 30 36 38 36 37 33 30 22 26 23 26 24 29 28 29 26 25 27 27 26
34 35 33 32 24 21 27 19 14 10 8 4 14 9 18 38 9 28 35 31 30 29 28 33 31 36 37 42 38 38 31 30 26 30 25 25 23 26 32 33 30 24 25 27 29
31 31 32 30 24 23 20 18 12 7 12 10 17 14 20 33 36 10 30 36 29 29 30 30 29 33 37 34 37 33 32 31 31 32 21 25 24 49 35 36 26 29 27 27 28
33 29 30 26 19 28 22 17 10 18 9 17 22 15 24 25 33 22 30 41 44 39 38 34 35 33 31 35 35 37 37 27 24 23 18 35 37 25 18 32 25 38 31 32 30
36 33 26 26 20 23 18 20 24 17 32 10 16 21 25 26 30 34 29 38 42 36 33 36 31 38 34 41 38 43 43 31 20 18 21 38 33 28 32 23 22 25 31 34 32
41 35 30 24 20 24 27 34 27 30 18 19 25 23 30 29 30 33 40 37 42 46 40 38 36 26 39 31 37 40 47 43 40 36 27 33 32 35 27 29 28 24 25 23 27
39 37 24 17 14 21 30 52 27 29 22 23 29 28 36 35 35 39 37 37 37 42 41 34 28 31 31 37 39 43 39 42 46 26 25 30 34 27 36 40 21 20 24 23 20
34 30 19 12 16 22 38 40 37 37 31 32 33 33 35 36 39 40 41 36 34 37 38 40 36 28 33 42 44 39 43 44 40 44 17 17 27 35 36 33 32 35 32 28 23
29 22 5 11 20 24 33 35 35 39 36 37 35 39 38 35 36 41 44 41 30 32 41 41 36 39 38 37 38 44 46 48 40 34 40 39 30 31 18 33 34 28 31 29 26
26 26 19 24 34 30 29 35 35 35 36 38 38 35 37 41 40 39 39 38 37 36 38 41 44 33 38 39 36 46 45 41 47 45 35 29 33 49 21 19 25 22 26 30 25
21 15 13 19 24 26 29 30 31 31 33 33 37 36 39 43 45 43 37 36 32 41 37 41 41 50 32 37 35 37 45 43 43 42 42 40 38 47 29 16 17 21 25 23 24
14 14 12 16 16 21 20 26 25 24 27 21 26 26 23 31 41 44 40 38 33 34 35 31 30 32 47 44 37 38 41 42 44 48 39 45 37 47 47 26 31 13 26 23 23
20 14 15 21 21 26 25 24 27 23 24 20 27 24 24 20 18 28 29 44 41 34 31 39 36 28 34 40 43 40 39 39 46 45 49 46 45 45 38 44 28 30 34 28 31
17 18 20 22 18 20 22 23 26 23 25 16 19 27 28 24 29 30 30 37 34 41 33 37 39 33 34 33 36 42 47 37 37 39 40 44 46 39 39 35 33 37 40 27 37

GFSSW_700_spd_033.txt.gz
Wind_Speed
17 17 17 18 18 18 18 18 18 17 16 15 16 18 20 18 19 23 20 19 28 30 29 23 19 15 14 4 15 25 23 9 14 18 17 13 22 21 11 13 9 4 4 11 20
19 19 19 18 18 18 18 18 18 17 17 16 15 16 18 18 19 19 12 20 24 30 30 24 19 15 12 4 19 13 12 8 7 19 19 13 14 19 20 14 10 14 13 10 21
20 20 21 21 20 19 18 18 18 18 17 17 16 16 17 18 18 12 10 15 21 24 29 27 23 13 7 6 15 7 16 6 9 18 20 17 15 16 15 12 10 14 18 10 18
17 18 19 20 21 22 21 20 19 18 19 18 18 17 18 18 10 11 9 11 17 22 27 29 26 19 14 13 17 9 5 8 9 15 13 20 13 17 7 17 15 13 7 14 15
16 17 17 17 18 19 21 22 22 21 21 20 19 20 20 21 8 20 7 11 16 22 25 26 27 23 17 14 18 17 7 8 12 11 11 12 14 13 16 23 17 15 14 18 16
18 17 18 17 17 17 17 19 21 22 24 24 23 23 24 19 10 16 17 14 15 21 23 26 30 24 16 17 24 20 18 13 7 9 31 13 17 13 23 19 16 15 13 27 24
20 20 19 19 18 17 16 18 18 19 22 25 26 27 27 1 11 14 12 11 17 21 23 23 25 20 19 19 19 19 21 20 9 11 25 15 15 18 19 17 18 15 14 21 27
21 20 22 22 21 20 19 19 18 19 19 21 26 29 21 7 13 19 11 8 15 15 20 22 25 28 24 22 21 21 22 27 21 16 21 26 21 18 18 19 19 15 14 18 20
21 21 21 22 22 21 20 21 20 21 21 20 22 26 19 16 21 12 17 9 14 14 13 14 18 25 26 23 22 23 27 24 16 22 17 20 26 20 21 22 20 17 16 20 21
25 23 21 23 23 22 20 21 23 23 23 22 25 21 14 6 9 13 17 17 16 16 20 21 20 23 25 26 30 26 25 25 20 27 25 29 23 30 22 27 24 20 17 22 23
33 29 27 24 26 24 18 21 25 24 28 23 23 22 13 3 7 10 10 18 19 21 24 23 27 38 33 32 29 26 28 28 19 25 18 24 27 26 23 29 31 28 24 24 26
37 37 32 26 27 26 24 21 24 28 36 30 24 31 17 16 19 20 16 20 29 32 26 26 39 32 29 28 30 31 33 34 16 29 27 27 23 29 16 37 38 36 27 27 25
36 36 35 31 29 26 25 24 26 27 38 39 29 30 22 29 23 26 28 22 25 29 31 36 22 29 29 30 34 36 36 35 20 15 15 21 31 37 23 31 37 39 31 27 22
34 33 31 28 27 28 30 25 20 21 24 42 29 25 32 35 38 33 31 25 31 35 30 35 30 30 29 37 35 40 36 32 22 25 27 25 16 42 29 36 38 39 37 30 27
34 33 28 31 20 24 27 20 17 14 7 10 9 9 13 44 21 36 35 31 36 34 32 43 31 34 39 33 35 45 35 35 33 25 34 27 9 22 36 42 40 40 37 32 27
37 35 31 25 20 24 27 22 20 8 11 6 16 14 15 27 40 1 42 39 34 29 34 35 33 34 34 32 34 35 35 38 36 33 16 29 19 27 28 33 41 37 34 34 31
38 40 36 28 14 22 19 19 14 14 4 11 19 20 19 20 27 27 26 46 44 40 40 38 39 33 31 33 35 32 38 27 17 18 6 31 35 32 27 34 38 41 36 31 30
40 41 37 28 15 19 19 21 20 10 27 9 5 17 26 24 28 31 36 43 49 39 27 34 34 40 35 42 37 43 40 30 10 11 12 24 21 40 37 26 29 40 34 31 33
44 40 37 27 13 19 26 31 18 24 11 15 28 21 24 27 28 32 41 43 43 51 45 30 44 26 39 34 39 33 48 43 31 33 18 27 33 39 31 35 33 43 42 29 39
45 40 31 16 6 22 32 48 30 27 21 16 20 10 13 15 16 35 38 44 41 36 48 43 27 38 36 34 38 44 29 38 42 15 18 25 31 32 32 42 42 44 29 23 43
38 39 22 7 7 27 42 36 34 32 33 32 25 36 39 40 33 32 25 44 38 39 35 46 45 34 31 41 43 38 45 43 29 40 9 8 29 34 21 35 47 42 38 29 24
31 30 6 18 24 30 35 34 28 30 28 37 35 36 38 37 41 40 42 31 29 43 45 47 41 44 50 31 41 45 41 46 34 13 28 32 36 21 26 26 40 38 38 23 24
29 29 10 23 24 25 28 32 28 30 32 31 38 38 37 41 42 37 40 39 33 21 51 44 53 33 37 48 43 51 49 42 46 34 38 14 30 50 41 30 21 29 24 24 27
20 19 12 10 11 22 31 30 27 26 28 25 31 30 31 40 40 47 45 36 30 30 24 33 52 59 36 43 33 28 49 46 44 46 35 53 37 28 41 23 21 29 37 29 20
16 19 11 17 18 16 18 18 18 24 29 25 34 23 21 25 27 30 31 39 40 39 32 28 33 50 58 45 32 46 30 50 52 49 44 37 47 45 40 29 24 31 27 33 24
18 18 17 22 23 26 17 16 17 17 19 26 18 26 20 25 19 29 24 21 31 37 28 25 24 40 41 43 54 41 39 45 49 51 50 46 41 30 39 34 29 26 22 24 23
17 16 19 24 20 21 16 20 17 21 16 15 21 22 17 24 32 37 32 30 31 28 26 29 15 24 30 33 21 30 60 46 35 41 46 48 44 46 40 39 26 33 34 28 35